sat.trackr.live / text

‹ back to catalog

OUT OF THE BOX (OOTB)

NORAD 68428 · 2026-067N

PAYLOAD ACTIVE UNKNOWN

§ Identity

Operator
Country
FR
Launch date
2026-03-30
Launch site
AFWTR
Launch vehicle
Mass (kg)
RCS (m²)

External: N2YO · Heavens-Above · Gunter

§ Orbital elements

Epoch: 2026-05-24T17:40:31.806336Z

Period
94.84 min
Inclination
97.4559°
Eccentricity
0.0003570
Mean motion
15.18295622 rev/d
Perigee alt
508.5 km
Apogee alt
513.5 km
Semi-major
6,889.1 km
B*
1.5654e-4
RAAN
103.5768°
Arg perigee
84.4694°
Mean anomaly
275.6948°
Rev number
838

§ Raw data

OUT OF THE BOX (OOTB)1 68428U 26067N   26144.73647924  .00003142  00000+0  15654-3 0  99912 68428  97.4559 103.5768 0003570  84.4694 275.6948 15.18295622  8380

JSON: /api/v1/satellites/68428 · /tle

For live sub-satellite position, see the globe view (requires WebGL).

§ Visibility from observer

Set your observer location to see the next 7 days of passes ≥ 10°. The values pass through the URL so the page stays shareable.

No JS? Fill the form by hand. The geolocation button needs JavaScript.

§ Radio — SatNOGS DB

ModeDescriptionDownlinkUplink
GMSK Mode U - Transmitter 402.360 MHz

1 transmitter · refreshed weekly from db.satnogs.org